Lexington Weather

Lexington, Massachusetts, USA

34°F
4/16/2021 10:47am 
  • Lexington Conditions: Snow, Fog, Overcast
  • Temperature: 34.0°F / 1.1°CWarmer 0.2°F than last hour.
  • Dew Point: 32.7°FIncreased 0.2°Fsince last hour.
  • Relative Humidity: 95
  • Wind: Wind from N N 1 mph, 10-min avg: Calm, gust: 3 mph
  • Barometer: 29.47 inFalling 0.02  inHg/hr Falling Slowly
  • Visibility: ½ mile
  • Snow Today: 1.3 in
  •   

Regional Weather Roundup
for Boston / Norton, MA

        
000
ASUS41 KBOX 101504
RWRBOX

REGIONAL WEATHER ROUNDUP
NATIONAL WEATHER SERVICE BOSTON/NORTON MA
1100 AM EDT SAT APR 10 2021

NOTE:  "FAIR" INDICATES FEW OR NO CLOUDS BELOW 12,000 FEET WITH NO 
SIGNIFICANT WEATHER AND/OR OBSTRUCTIONS TO VISIBILITY.

MAZALL-101600-
EASTERN MASSACHUSETTS
  
CITY           SKY/WX    TMP DP  RH WIND       PRES   REMARKS
BOSTON         MOSUNNY   66  48  52 W6        29.98F                  
BEVERLY        NOT AVBL                                               
LAWRENCE       CLOUDY    61  46  57 VRB3      29.99F                  
BEDFORD        MOSUNNY   69  50  50 NW9       29.96F                  
BLUE HILL        N/A     60  47  61 SW6       29.98F                  
NORWOOD        MOSUNNY   65  48  54 VRB3      29.98F                  
MARSHFIELD     PTSUNNY   63  48  59 VRB6G16   29.99F                  
PLYMOUTH       PTSUNNY   59  47  64 SW8       30.00F                  
TAUNTON        MOSUNNY   60  47  61 SW8       30.00F                  
NEW BEDFORD    MOSUNNY   63  48  58 VRB5      30.00F                  
$$

MAZALL-101600-
CAPE COD AND THE ISLANDS
  
CITY           SKY/WX    TMP DP  RH WIND       PRES   REMARKS
FALMOUTH       MOSUNNY   55  46  71 SW7       30.02F                  
HYANNIS        CLOUDY    54  46  74 SW8       30.01F                  
CHATHAM        CLOUDY    50  45  83 SW8G16    30.04S                  
PROVINCETOWN   SUNNY     53  46  77 SW16      30.01F                  
NANTUCKET      PTSUNNY   47  44  90 SW10      30.04F                  
MARTHAS VNYRD  SUNNY     56  48  74 SW10      30.03F                  
$$
 
MAZALL-101600-
CENTRAL AND WESTERN MASSACHUSETTS
  
CITY           SKY/WX    TMP DP  RH WIND       PRES   REMARKS
WORCESTER      SUNNY     65  49  56 SW16      29.99F                  
FITCHBURG      SUNNY     68  50  52 W7        29.97F                  
ORANGE         SUNNY     63  50  62 CALM      29.99F                  
SPRINGFIELD    MOSUNNY   64  48  56 S6        29.98F                  
WESTFIELD      SUNNY     66  50  56 S8        29.98F                  
NORTH ADAMS    SUNNY     65  49  56 NW7       29.97F                  
PITTSFIELD     SUNNY     64  49  57 VRB5      29.96F                  
$$
 
RIZALL-101600-
RHODE ISLAND
  
CITY           SKY/WX    TMP DP  RH WIND       PRES   REMARKS
PROVIDENCE     MOSUNNY   59  48  67 S8        30.00F                  
NEWPORT        PTSUNNY   52  48  86 S7        30.02F                  
BLOCK ISLAND   CLOUDY    52  47  83 W9        30.05S                  
SMITHFIELD     MOSUNNY   65  55  70 VRB7      30.00F                  
WESTERLY       CLOUDY    53  47  79 SW12      30.04S                  
$$
 
CTZALL-101600-
CONNECTICUT
  
CITY           SKY/WX    TMP DP  RH WIND       PRES   REMARKS
BRADLEY INTL   MOSUNNY   63  48  58 SE9       29.99F                  
HARTFORD       PTSUNNY   63  50  62 S7        30.01F                  
BRIDGEPORT     PTSUNNY   54  47  77 S8        30.04F                  
DANBURY        CLOUDY    61  51  70 SW5       30.02F                  
GROTON         CLOUDY    53  48  83 SW13      30.03F                  
NEW HAVEN      CLOUDY    53  49  86 SW7       30.03F                  
CHESTER        CLOUDY    59  50  72 SW10      30.03F                  
MERIDEN        CLOUDY    59  48  67 S7        30.01F                  
WILLIMANTIC    PTSUNNY   63  50  62 SW7       30.01F                  
OXFORD         CLOUDY    58  53  84 SW7       30.03F                  
$$

MEZ002-015-021-024-NHZ003-005-008-011-012-014-VTZ005-008-101600-
NORTHERN NEW ENGLAND
  
CITY           SKY/WX    TMP DP  RH WIND       PRES   REMARKS
PORTLAND ME    MOSUNNY   65  47  52 NE5       29.95F                  
BANGOR ME      MOSUNNY   59  44  57 CALM      29.95F                  
CONCORD NH     CLOUDY    62  44  51 CALM      29.97F                  
MANCHESTER NH  PTSUNNY   65  46  50 CALM      29.96F                  
NASHUA NH      MOSUNNY   67  50  54 VRB5      29.97F                  
PORTSMOUTH NH  PTSUNNY   67  43  42 W3        29.97F                  
JAFFREY NH     SUNNY     66  49  54 NW8       29.98F                  
KEENE NH       SUNNY     63  49  60 CALM      29.97F                  
BURLINGTON VT  MOSUNNY   66  47  50 S10G20    29.95F                  
MT. WASHINGTON NOT AVBL                                               
$$

NYZ052-076-101600-
EASTERN NEW YORK
  
CITY           SKY/WX    TMP DP  RH WIND       PRES   REMARKS
ALBANY         PTSUNNY   60  48  64 N5        29.98F                  
NEW YORK CITY  PTSUNNY   57  49  74 NE6       30.02F                  
$$
 
ANZALL-101600-
MARINE OBSERVATIONS
  
STATION/POSITION TIME  TEMP    WIND        PRES    VSBY  WAVE
                       AIR SEA DIR/SP/G                  HT/PER
                 (UTC) (F)     (DEG/KT/KT) (MB)    (MI)  (FT/S)
BOSTON BUOY      1440   49 45  240/  2/  6 1015.9F
BUZZARDS BAY     1400          220/  9/ 10 1018.3F
NANTUCKET SOUND  1440      46                N/A
MASS BAY-STELLWA 1404   46     200/  8/ 10 1014.5F  1 7/8  4/11
ISLE OF SHOALS   1400   49     210/  9/ 10 1014.9R
S OF BLOCK IS    1426      47                N/A           3/10
$$

......................KEY.........................
  SKY/WX - SKY CONDITION/PRESENT WEATHER
  TMP    - TEMPERATURE IN FAHRENHEIT
  DWPT   - DEWPOINT IN FAHRENHEIT
  RH     - RELATIVE HUMIDITY IN PERCENT
  WIND   - DIRECTION AND SPEED IN MPH
  PRES   - MEAN SEA LEVEL PRESSURE IN INCHES OF HG
  WCI    - WIND CHILL INDEX
  VSB    - VISIBILITY IN MILES
  HX     - HEAT INDEX
  TC     - TEMPERATURE IN CELSIUS
  VRB    - VARIABLE WIND DIRECTION
  N/A    - NOT AVAILABLE
  
      

Other recent Regional Weather Roundups

Fri Apr 16, 10:05am

Fri Apr 16, 9:04am

Fri Apr 16, 8:04am

Fri Apr 16, 7:04am

Fri Apr 16, 6:04am

Fri Apr 16, 5:04am

Fri Apr 16, 4:04am

Fri Apr 16, 3:04am

Fri Apr 16, 2:04am

Fri Apr 16, 1:04am

Fri Apr 16, 12:04am

Thu Apr 15, 11:05pm

Thu Apr 15, 10:04pm

Thu Apr 15, 9:04pm

Thu Apr 15, 8:04pm

Thu Apr 15, 7:05pm

Thu Apr 15, 6:04pm

Thu Apr 15, 5:05pm

Thu Apr 15, 4:04pm

Thu Apr 15, 3:05pm

Thu Apr 15, 2:04pm

Thu Apr 15, 1:05pm

Thu Apr 15, 12:04pm

Thu Apr 15, 11:04am

Thu Apr 15, 10:05am

Thu Apr 15, 9:04am

Thu Apr 15, 8:04am

Thu Apr 15, 7:04am

Thu Apr 15, 6:04am

Thu Apr 15, 5:04am

Thu Apr 15, 4:04am

Thu Apr 15, 3:04am

Thu Apr 15, 2:04am

Thu Apr 15, 1:04am

Thu Apr 15, 12:04am

Wed Apr 14, 11:04pm

Wed Apr 14, 10:04pm

Wed Apr 14, 9:04pm

Wed Apr 14, 8:04pm

Wed Apr 14, 7:04pm

Wed Apr 14, 6:04pm

Wed Apr 14, 5:05pm

Wed Apr 14, 4:04pm

Wed Apr 14, 3:05pm

Wed Apr 14, 2:04pm

Wed Apr 14, 1:05pm

Wed Apr 14, 12:04pm

Wed Apr 14, 11:04am

Wed Apr 14, 10:04am

Wed Apr 14, 9:04am

Wed Apr 14, 8:04am

Wed Apr 14, 7:04am

Wed Apr 14, 6:04am

Wed Apr 14, 5:04am

Wed Apr 14, 4:04am

Wed Apr 14, 3:04am

Wed Apr 14, 2:04am

Wed Apr 14, 1:04am

Wed Apr 14, 12:04am

Tue Apr 13, 11:04pm

Tue Apr 13, 10:05pm

Tue Apr 13, 9:05pm

Tue Apr 13, 8:05pm

Tue Apr 13, 7:04pm

Tue Apr 13, 6:04pm

Tue Apr 13, 5:05pm

Tue Apr 13, 4:04pm

Tue Apr 13, 3:04pm

Tue Apr 13, 2:05pm

Tue Apr 13, 1:04pm

Tue Apr 13, 12:05pm

Tue Apr 13, 11:05am

Tue Apr 13, 10:04am

Tue Apr 13, 9:04am

Tue Apr 13, 8:04am

Tue Apr 13, 7:04am

Tue Apr 13, 6:04am

Tue Apr 13, 5:04am

Tue Apr 13, 4:04am

Tue Apr 13, 3:04am

Tue Apr 13, 2:04am

Tue Apr 13, 1:04am

Tue Apr 13, 12:05am

Mon Apr 12, 11:04pm

Mon Apr 12, 10:04pm

Mon Apr 12, 9:04pm

Mon Apr 12, 8:04pm

Mon Apr 12, 7:05pm

Mon Apr 12, 6:04pm

Mon Apr 12, 5:04pm

Mon Apr 12, 4:04pm

Mon Apr 12, 3:05pm

Mon Apr 12, 2:04pm

Mon Apr 12, 1:05pm

Mon Apr 12, 12:04pm

Mon Apr 12, 11:04am

Mon Apr 12, 10:04am

Mon Apr 12, 9:04am

Mon Apr 12, 8:04am

Mon Apr 12, 7:04am

Mon Apr 12, 6:04am

Mon Apr 12, 5:04am

Mon Apr 12, 4:04am

Mon Apr 12, 3:04am

Mon Apr 12, 2:04am

Mon Apr 12, 1:05am

Mon Apr 12, 12:04am

Sun Apr 11, 11:04pm

Sun Apr 11, 10:04pm

Sun Apr 11, 9:04pm

Sun Apr 11, 8:04pm

Sun Apr 11, 7:04pm

Sun Apr 11, 6:05pm

Sun Apr 11, 5:05pm

Sun Apr 11, 4:04pm

Sun Apr 11, 3:05pm

Sun Apr 11, 2:05pm

Sun Apr 11, 1:05pm

Sun Apr 11, 12:04pm

Sun Apr 11, 11:05am

Sun Apr 11, 10:05am

Sun Apr 11, 9:04am

Sun Apr 11, 8:04am

Sun Apr 11, 7:04am

Sun Apr 11, 6:04am

Sun Apr 11, 5:04am

Sun Apr 11, 4:04am

Sun Apr 11, 3:04am

Sun Apr 11, 2:04am

Sun Apr 11, 1:05am

Sun Apr 11, 12:04am

Sat Apr 10, 11:05pm

Sat Apr 10, 10:04pm

Sat Apr 10, 9:04pm

Sat Apr 10, 8:04pm

Sat Apr 10, 7:05pm

Sat Apr 10, 6:04pm

Sat Apr 10, 5:04pm

Sat Apr 10, 4:04pm

Sat Apr 10, 3:04pm

Sat Apr 10, 2:05pm

Sat Apr 10, 1:04pm

Sat Apr 10, 12:04pm

Sat Apr 10, 10:04am

Sat Apr 10, 9:04am

Sat Apr 10, 8:04am

Sat Apr 10, 7:04am

Sat Apr 10, 6:04am

Sat Apr 10, 5:04am

Sat Apr 10, 4:04am

Sat Apr 10, 3:04am

Sat Apr 10, 2:04am

Sat Apr 10, 1:05am

Sat Apr 10, 12:04am

Fri Apr 9, 11:04pm

Fri Apr 9, 10:05pm

Fri Apr 9, 9:04pm

Fri Apr 9, 8:05pm

Fri Apr 9, 7:05pm

Fri Apr 9, 6:04pm

Fri Apr 9, 5:04pm

Fri Apr 9, 4:05pm

Fri Apr 9, 3:05pm

Fri Apr 9, 2:04pm

Fri Apr 9, 1:04pm

Fri Apr 9, 12:04pm

Fri Apr 9, 11:05am

Meta data:

ID: 22368720-1a17-48e5-b86a-1aeb9c86a68b
Link: https://api.weather.gov/products/22368720-1a17-48e5-b86a-1aeb9c86a68b